sampling_time,wmo_synop_id,msc_id,stn_nam,stn_elev,lat,long,stn_typ,date_tm,rpt_typ,result_time,crnt_buoy_lat,crnt_buoy_lat_qa_summary,crnt_buoy_long,crnt_buoy_long_qa_summary,avg_air_temp_pst10mts,avg_air_temp_pst10mts_qa_summary,avg_sea_sfc_temp_pst10mts,avg_sea_sfc_temp_pst10mts_qa_summary,avg_batry_volt_pst10mts,avg_batry_volt_pst10mts_qa_summary,avg_solr_panl_crnt_pst10mts,avg_solr_panl_crnt_pst10mts_qa_summary,avg_wtr_lvl_snsr_volt_pst10mts,avg_wtr_lvl_snsr_volt_pst10mts_qa_summary,avg_wave_hgt_pst20mts,avg_wave_hgt_pst20mts_qa_summary,pk_wave_hgt_pst20mts,pk_wave_hgt_pst20mts_qa_summary,sig_wave_pd_pst20mts,sig_wave_pd_pst20mts_qa_summary,sig_wave_hgt_pst20mts,sig_wave_hgt_pst20mts_qa_summary,avg_max_wave_hgt_pst20mts,avg_max_wave_hgt_pst20mts_qa_summary,avg_max_wave_pd_pst20mts,avg_max_wave_pd_pst20mts_qa_summary,avg_wave_pd_pst20mts,avg_wave_pd_pst20mts_qa_summary,pk_wave_pd_pst20mts,pk_wave_pd_pst20mts_qa_summary,avg_stn_pres_pst10mts,avg_stn_pres_pst10mts_qa_summary,avg_wnd_spd_pst10mts,avg_wnd_spd_pst10mts_qa_summary,avg_wnd_dir_pst10mts,avg_wnd_dir_pst10mts_qa_summary,max_avg_wnd_spd_pst10mts,max_avg_wnd_spd_pst10mts_qa_summary,wnd_snsr_vert_disp,wnd_snsr_vert_disp_qa_summary,pres_tend_amt_pst3hrs,pres_tend_amt_pst3hrs_data_flag,pres_tend_char_pst3hrs,pres_tend_char_pst3hrs_data_flag,avg_mslp_pst10mts,avg_mslp_pst10mts_data_flag,avg_stn_pres_pst10mts_1,avg_stn_pres_pst10mts_1_qa_summary,avg_stn_pres_pst10mts_2,avg_stn_pres_pst10mts_2_qa_summary,avg_wnd_spd_pst10mts_1,avg_wnd_spd_pst10mts_1_qa_summary,avg_wnd_spd_pst10mts_2,avg_wnd_spd_pst10mts_2_qa_summary,avg_wnd_dir_pst10mts_1,avg_wnd_dir_pst10mts_1_qa_summary,avg_wnd_dir_pst10mts_2,avg_wnd_dir_pst10mts_2_qa_summary,max_avg_wnd_spd_pst10mts_1,max_avg_wnd_spd_pst10mts_1_qa_summary,max_avg_wnd_spd_pst10mts_2,max_avg_wnd_spd_pst10mts_2_qa_summary
2022-10-29T00:00:00Z,44489,9302001,WEST CHEDABUCTO BAY,0,45.48687,-61.14100000000001,18,2022-10-29T00:00:00.000Z,108,2022-10-29T00:03:00.475Z,45.48702,100,-61.1411,100,7.7,100,12.4,100,12.6,100,0.0,100,3.6,100,0.1,100,0.2,100,2.1,100,0.1,100,0.2,100,2.1,100,2.1,100,2.1,100,1032.0,100,18.0,100,0,100,21.2,100,5,100,0.4,1,0,1,1032.0,1,1032.0,100,1032.0,100,18.0,100,17.6,100,0,100,3,100,21.2,100,20.9,100
2022-10-29T00:10:00Z,44489,9302001,WEST CHEDABUCTO BAY,0,45.48687,-61.14100000000001,18,2022-10-29T00:10:00.000Z,110,2022-10-29T00:13:00.488Z,,-1,,-1,8.4,100,13.2,100,12.6,100,0.0,100,3.6,100,,-1,,-1,,-1,,-1,,-1,,-1,,-1,,-1,1032.0,100,18.7,100,3,100,22.0,100,5,100,0.4,1,0,1,1032.0,1,1032.0,100,1032.0,100,18.7,100,18.4,100,3,100,6,100,22.0,100,21.6,100
2022-10-29T00:20:00Z,44489,9302001,WEST CHEDABUCTO BAY,0,45.48687,-61.14100000000001,18,2022-10-29T00:20:00.000Z,110,2022-10-29T00:23:01.948Z,45.48703,100,-61.1411,100,7.6,100,12.4,100,12.6,100,0.0,100,3.6,100,,-1,,-1,,-1,,-1,,-1,,-1,,-1,,-1,1032.1,100,17.3,100,5,100,21.2,100,5,100,0.3,1,1,1,1032.1,1,1032.1,100,1032.1,100,17.3,100,16.9,100,5,100,7,100,21.2,100,20.9,100
2022-10-29T00:30:00Z,44489,9302001,WEST CHEDABUCTO BAY,0,45.48687,-61.14100000000001,18,2022-10-29T00:30:00.000Z,110,2022-10-29T00:33:08.830Z,45.48703,100,-61.14108,100,7.4,100,12.4,100,12.6,100,0.0,100,3.6,100,,-1,,-1,,-1,,-1,,-1,,-1,,-1,,-1,1032.1,100,19.1,100,5,100,23.0,100,5,100,0.4,1,1,1,1032.1,1,1032.1,100,1032.1,100,19.1,100,18.7,100,5,100,8,100,23.0,100,22.0,100
2022-10-29T00:40:00Z,44489,9302001,WEST CHEDABUCTO BAY,0,45.48687,-61.14100000000001,18,2022-10-29T00:40:00.000Z,110,2022-10-29T00:43:03.792Z,45.48703,100,-61.1411,100,7.4,100,12.4,100,12.5,100,0.0,100,3.6,100,,-1,,-1,,-1,,-1,,-1,,-1,,-1,,-1,1032.2,100,16.6,100,6,100,20.9,100,5,100,0.3,1,1,1,1032.2,1,1032.2,100,1032.2,100,16.6,100,16.2,100,6,100,9,100,20.9,100,21.2,100
2022-10-29T00:50:00Z,44489,9302001,WEST CHEDABUCTO BAY,0,45.48687,-61.14100000000001,18,2022-10-29T00:50:00.000Z,110,2022-10-29T00:53:03.696Z,45.48703,100,-61.14108,100,7.4,100,12.4,100,12.5,100,0.0,100,3.6,100,,-1,,-1,,-1,,-1,,-1,,-1,,-1,,-1,1032.3,100,15.5,100,9,100,20.2,100,5,100,0.2,1,3,1,1032.3,1,1032.3,100,1032.3,100,15.5,100,15.1,100,9,100,12,100,20.2,100,20.2,100
2022-10-29T01:00:00Z,44489,9302001,WEST CHEDABUCTO BAY,0,45.48687,-61.14100000000001,18,2022-10-29T01:00:00.000Z,108,2022-10-29T01:03:08.227Z,45.48702,100,-61.14106999999999,100,7.4,100,12.4,100,12.5,100,0.0,100,3.6,100,0.1,100,0.2,100,2.0,100,0.1,100,0.1,100,2.0,100,2.0,100,2.0,100,1032.4,100,15.8,100,2,100,18.7,100,5,100,0.3,1,3,1,1032.4,1,1032.4,100,1032.4,100,15.8,100,15.5,100,2,100,5,100,18.7,100,18.7,100
2022-10-29T01:10:00Z,44489,9302001,WEST CHEDABUCTO BAY,0,45.48687,-61.14100000000001,18,2022-10-29T01:10:00.000Z,110,2022-10-29T01:16:24.284Z,45.48703,100,-61.14108,100,7.4,100,12.4,100,12.6,100,0.0,100,3.6,100,,-1,,-1,,-1,,-1,,-1,,-1,,-1,,-1,1032.4,100,16.6,100,1,100,20.2,100,5,100,0.4,1,3,1,1032.4,1,1032.4,100,1032.5,100,16.6,100,16.2,100,1,100,4,100,20.2,100,20.2,100
2022-10-29T01:20:00Z,44489,9302001,WEST CHEDABUCTO BAY,0,45.48687,-61.14100000000001,18,2022-10-29T01:20:00.000Z,110,2022-10-29T01:23:23.292Z,45.48705,100,-61.1411,100,7.3,100,12.4,100,12.6,100,0.0,100,3.6,100,,-1,,-1,,-1,,-1,,-1,,-1,,-1,,-1,1032.5,100,16.6,100,357,100,19.4,100,5,100,0.3,1,3,1,1032.5,1,1032.5,100,1032.5,100,16.6,100,16.2,100,357,100,359,100,19.4,100,18.7,100
2022-10-29T01:30:00Z,44489,9302001,WEST CHEDABUCTO BAY,0,45.48687,-61.14100000000001,18,2022-10-29T01:30:00.000Z,110,2022-10-29T01:33:25.426Z,45.48703,100,-61.14106999999999,100,7.3,100,12.3,100,12.6,100,0.0,100,3.6,100,,-1,,-1,,-1,,-1,,-1,,-1,,-1,,-1,1032.6,100,15.1,100,1,100,18.4,100,5,100,0.3,1,3,1,1032.6,1,1032.6,100,1032.6,100,15.1,100,14.8,100,1,100,3,100,18.4,100,18.7,100
2022-10-29T01:40:00Z,44489,9302001,WEST CHEDABUCTO BAY,0,45.48687,-61.14100000000001,18,2022-10-29T01:40:00.000Z,110,2022-10-29T01:43:20.381Z,45.48705,100,-61.14108,100,7.3,100,12.3,100,12.5,100,0.0,100,3.6,100,,-1,,-1,,-1,,-1,,-1,,-1,,-1,,-1,1032.6,100,15.8,100,5,100,19.8,100,5,100,0.4,1,3,1,1032.6,1,1032.6,100,1032.6,100,15.8,100,15.5,100,5,100,7,100,19.8,100,19.4,100
2022-10-29T01:50:00Z,44489,9302001,WEST CHEDABUCTO BAY,0,45.48687,-61.14100000000001,18,2022-10-29T01:50:00.000Z,110,2022-10-29T01:54:21.559Z,45.486999999999995,100,-61.14106999999999,100,7.2,100,12.3,100,12.5,100,0.0,100,3.6,100,,-1,,-1,,-1,,-1,,-1,,-1,,-1,,-1,1032.6,100,13.0,100,15,100,16.6,100,5,100,0.4,1,3,1,1032.6,1,1032.6,100,1032.7,100,13.0,100,13.0,100,15,100,17,100,16.6,100,16.2,100
2022-10-29T02:00:00Z,44489,9302001,WEST CHEDABUCTO BAY,0,45.48687,-61.14100000000001,18,2022-10-29T02:00:00.000Z,108,2022-10-29T02:03:28.560Z,45.48702,100,-61.14105,100,7.2,100,12.3,100,12.5,100,0.0,100,3.6,100,0.1,100,0.2,100,2.2,100,0.1,100,0.1,100,2.2,100,2.2,100,2.1,100,1032.6,100,11.5,100,8,100,14.8,100,5,100,0.5,1,3,1,1032.6,1,1032.6,100,1032.7,100,11.5,100,11.5,100,8,100,10,100,14.8,100,14.0,100
2022-10-29T02:10:00Z,44489,9302001,WEST CHEDABUCTO BAY,0,45.48687,-61.14100000000001,18,2022-10-29T02:10:00.000Z,110,2022-10-29T02:16:38.034Z,45.48702,100,-61.14105,100,7.3,100,12.2,100,12.6,100,0.0,100,3.6,100,,-1,,-1,,-1,,-1,,-1,,-1,,-1,,-1,1032.7,100,10.4,100,346,100,13.3,100,5,100,0.6,1,3,1,1032.7,1,1032.7,100,1032.8,100,10.4,100,10.4,100,346,100,348,100,13.3,100,13.3,100
2022-10-29T02:20:00Z,44489,9302001,WEST CHEDABUCTO BAY,0,45.48687,-61.14100000000001,18,2022-10-29T02:20:00.000Z,110,2022-10-29T02:23:37.698Z,45.486979999999996,100,-61.14103000000001,100,7.1,100,12.2,100,12.6,100,0.0,100,3.6,100,,-1,,-1,,-1,,-1,,-1,,-1,,-1,,-1,1032.7,100,9.4,100,340,100,12.2,100,5,100,0.8,1,3,1,1032.7,1,1032.7,100,1032.8,100,9.4,100,9.4,100,340,100,342,100,12.2,100,12.2,100
2022-10-29T02:30:00Z,44489,9302001,WEST CHEDABUCTO BAY,0,45.48687,-61.14100000000001,18,2022-10-29T02:30:00.000Z,110,2022-10-29T02:33:43.400Z,45.48705,100,-61.14105,100,7.1,100,12.2,100,12.5,100,0.0,100,3.6,100,,-1,,-1,,-1,,-1,,-1,,-1,,-1,,-1,1032.6,100,8.6,100,335,100,11.2,100,5,100,0.7,1,1,1,1032.6,1,1032.6,100,1032.7,100,8.6,100,8.6,100,335,100,337,100,11.2,100,10.8,100
2022-10-29T02:40:00Z,44489,9302001,WEST CHEDABUCTO BAY,0,45.48687,-61.14100000000001,18,2022-10-29T02:40:00.000Z,110,2022-10-29T02:42:44.051Z,45.48703,100,-61.14102,100,7.0,100,12.2,100,12.5,100,0.0,100,3.6,100,,-1,,-1,,-1,,-1,,-1,,-1,,-1,,-1,1032.5,100,10.1,100,342,100,12.6,100,5,100,0.5,1,0,1,1032.5,1,1032.5,100,1032.5,100,10.1,100,10.1,100,342,100,344,100,12.6,100,12.6,100
2022-10-29T02:50:00Z,44489,9302001,WEST CHEDABUCTO BAY,0,45.48687,-61.14100000000001,18,2022-10-29T02:50:00.000Z,110,2022-10-29T02:52:46.647Z,45.48703,100,-61.14103000000001,100,7.1,100,12.2,100,12.5,100,0.0,100,3.6,100,,-1,,-1,,-1,,-1,,-1,,-1,,-1,,-1,1032.4,100,10.4,100,335,100,14.0,100,5,100,0.4,1,0,1,1032.4,1,1032.4,100,1032.4,100,10.4,100,10.4,100,335,100,338,100,14.0,100,14.4,100
2022-10-29T03:00:00Z,44489,9302001,WEST CHEDABUCTO BAY,0,45.48687,-61.14100000000001,18,2022-10-29T03:00:00.000Z,108,2022-10-29T03:02:46.318Z,45.48703,100,-61.14102,100,7.1,100,12.1,100,12.5,100,0.0,100,3.6,100,0.0,100,0.1,100,2.6,100,0.1,100,0.1,100,2.5,100,2.3,100,4.9,100,1032.4,100,10.8,100,331,100,13.3,100,5,100,0.4,1,0,1,1032.4,1,1032.4,100,1032.4,100,10.8,100,10.4,100,331,100,333,100,13.3,100,13.3,100
2022-10-29T03:10:00Z,44489,9302001,WEST CHEDABUCTO BAY,0,45.48687,-61.14100000000001,18,2022-10-29T03:10:00.000Z,110,2022-10-29T03:15:47.442Z,45.48707,100,-61.14105,100,7.0,100,12.1,100,12.5,100,0.0,100,3.6,100,,-1,,-1,,-1,,-1,,-1,,-1,,-1,,-1,1032.4,100,10.4,100,325,100,13.0,100,5,100,0.4,1,0,1,1032.4,1,1032.4,100,1032.4,100,10.4,100,10.1,100,325,100,327,100,13.0,100,13.0,100
2022-10-29T03:20:00Z,44489,9302001,WEST CHEDABUCTO BAY,0,45.48687,-61.14100000000001,18,2022-10-29T03:20:00.000Z,110,2022-10-29T03:22:47.371Z,45.48705,100,-61.14106999999999,100,7.0,100,12.1,100,12.5,100,0.0,100,3.6,100,,-1,,-1,,-1,,-1,,-1,,-1,,-1,,-1,1032.4,100,10.4,100,323,100,13.3,100,5,100,0.3,1,0,1,1032.4,1,1032.4,100,1032.4,100,10.4,100,10.1,100,323,100,326,100,13.3,100,13.3,100
2022-10-29T03:30:00Z,44489,9302001,WEST CHEDABUCTO BAY,0,45.48687,-61.14100000000001,18,2022-10-29T03:30:00.000Z,110,2022-10-29T03:32:52.929Z,45.48705,100,-61.14105,100,7.1,100,12.1,100,12.5,100,0.0,100,3.6,100,,-1,,-1,,-1,,-1,,-1,,-1,,-1,,-1,1032.4,100,9.7,100,316,100,13.0,100,5,100,0.3,1,0,1,1032.4,1,1032.4,100,1032.4,100,9.7,100,9.7,100,316,100,318,100,13.0,100,13.0,100
2022-10-29T03:40:00Z,44489,9302001,WEST CHEDABUCTO BAY,0,45.48687,-61.14100000000001,18,2022-10-29T03:40:00.000Z,110,2022-10-29T03:43:55.658Z,45.48705,100,-61.14106999999999,100,7.1,100,12.0,100,12.5,100,0.0,100,3.6,100,,-1,,-1,,-1,,-1,,-1,,-1,,-1,,-1,1032.3,100,9.7,100,322,100,12.6,100,5,100,0.1,1,0,1,1032.3,1,1032.3,100,1032.3,100,9.7,100,9.7,100,322,100,325,100,12.6,100,12.6,100
2022-10-29T03:50:00Z,44489,9302001,WEST CHEDABUCTO BAY,0,45.48687,-61.14100000000001,18,2022-10-29T03:50:00.000Z,110,2022-10-29T03:52:51.981Z,45.48703,100,-61.14106999999999,100,7.1,100,12.0,100,12.5,100,0.0,100,3.6,100,,-1,,-1,,-1,,-1,,-1,,-1,,-1,,-1,1032.3,100,9.7,100,319,100,12.6,100,5,100,0.0,1,0,1,1032.3,1,1032.3,100,1032.3,100,9.7,100,9.4,100,319,100,322,100,12.6,100,12.6,100
2022-10-29T04:00:00Z,44489,9302001,WEST CHEDABUCTO BAY,0,45.48687,-61.14100000000001,18,2022-10-29T04:00:00.000Z,108,2022-10-29T04:03:01.739Z,45.48705,100,-61.14105,100,7.2,100,12.0,100,12.5,100,0.0,100,3.6,100,0.0,100,0.1,100,3.1,100,0.0,100,0.1,100,2.9,100,2.9,100,2.6,100,1032.3,100,10.1,100,322,100,13.0,100,5,100,0.0,1,0,1,1032.3,1,1032.3,100,1032.4,100,10.1,100,10.1,100,322,100,324,100,13.0,100,13.0,100
2022-10-29T04:10:00Z,44489,9302001,WEST CHEDABUCTO BAY,0,45.48687,-61.14100000000001,18,2022-10-29T04:10:00.000Z,110,2022-10-29T04:16:08.514Z,45.48705,100,-61.14108,100,7.3,100,12.0,100,12.5,100,0.0,100,3.6,100,,-1,,-1,,-1,,-1,,-1,,-1,,-1,,-1,1032.3,100,12.2,100,333,100,15.5,100,5,100,-0.1,1,8,1,1032.3,1,1032.3,100,1032.4,100,12.2,100,11.9,100,333,100,335,100,15.5,100,15.1,100
2022-10-29T04:20:00Z,44489,9302001,WEST CHEDABUCTO BAY,0,45.48687,-61.14100000000001,18,2022-10-29T04:20:00.000Z,110,2022-10-29T04:23:08.571Z,45.48705,100,-61.14106999999999,100,7.3,100,12.0,100,12.5,100,0.0,100,3.6,100,,-1,,-1,,-1,,-1,,-1,,-1,,-1,,-1,1032.5,100,9.4,100,331,100,13.0,100,5,100,0.0,1,0,1,1032.5,1,1032.5,100,1032.5,100,9.4,100,9.4,100,331,100,334,100,13.0,100,12.6,100
2022-10-29T04:30:00Z,44489,9302001,WEST CHEDABUCTO BAY,0,45.48687,-61.14100000000001,18,2022-10-29T04:30:00.000Z,110,2022-10-29T04:33:13.425Z,45.48705,100,-61.14106999999999,100,7.4,100,12.0,100,12.5,100,0.0,100,3.6,100,,-1,,-1,,-1,,-1,,-1,,-1,,-1,,-1,1032.4,100,9.4,100,323,100,13.0,100,5,100,-0.2,1,6,1,1032.4,1,1032.4,100,1032.5,100,9.4,100,9.0,100,323,100,325,100,13.0,100,12.6,100
2022-10-29T04:40:00Z,44489,9302001,WEST CHEDABUCTO BAY,0,45.48687,-61.14100000000001,18,2022-10-29T04:40:00.000Z,110,2022-10-29T04:43:12.701Z,45.48707,100,-61.14106999999999,100,7.4,100,12.0,100,12.5,100,0.0,100,3.6,100,,-1,,-1,,-1,,-1,,-1,,-1,,-1,,-1,1032.5,100,11.2,100,319,100,15.5,100,5,100,-0.1,1,5,1,1032.5,1,1032.5,100,1032.5,100,11.2,100,10.8,100,319,100,322,100,15.5,100,14.8,100
2022-10-29T04:50:00Z,44489,9302001,WEST CHEDABUCTO BAY,0,45.48687,-61.14100000000001,18,2022-10-29T04:50:00.000Z,110,2022-10-29T04:53:19.143Z,45.48708,100,-61.14106999999999,100,7.4,100,12.0,100,12.5,100,0.0,100,3.6,100,,-1,,-1,,-1,,-1,,-1,,-1,,-1,,-1,1032.4,100,12.6,100,316,100,16.2,100,5,100,-0.2,1,5,1,1032.4,1,1032.4,100,1032.5,100,12.6,100,12.2,100,316,100,318,100,16.2,100,16.2,100
2022-10-29T05:00:00Z,44489,9302001,WEST CHEDABUCTO BAY,0,45.48687,-61.14100000000001,18,2022-10-29T05:00:00.000Z,108,2022-10-29T05:03:16.027Z,45.48705,100,-61.14106999999999,100,7.4,100,12.0,100,12.5,100,0.0,100,3.6,100,0.0,100,0.1,100,3.0,100,0.0,100,0.0,100,2.9,100,2.7,100,4.7,100,1032.4,100,14.0,100,326,100,17.3,100,5,100,-0.3,1,6,1,1032.4,1,1032.4,100,1032.4,100,14.0,100,13.7,100,326,100,328,100,17.3,100,17.3,100
2022-10-29T05:10:00Z,44489,9302001,WEST CHEDABUCTO BAY,0,45.48687,-61.14100000000001,18,2022-10-29T05:10:00.000Z,110,2022-10-29T05:16:32.096Z,45.48705,100,-61.1411,100,7.3,100,12.0,100,12.5,100,0.0,100,3.6,100,,-1,,-1,,-1,,-1,,-1,,-1,,-1,,-1,1032.4,100,12.2,100,330,100,15.1,100,5,100,-0.4,1,6,1,1032.4,1,1032.4,100,1032.4,100,12.2,100,11.9,100,330,100,332,100,15.1,100,14.8,100
2022-10-29T05:20:00Z,44489,9302001,WEST CHEDABUCTO BAY,0,45.48687,-61.14100000000001,18,2022-10-29T05:20:00.000Z,110,2022-10-29T05:23:32.894Z,45.48705,100,-61.14108,100,7.4,100,12.0,100,12.5,100,0.0,100,3.6,100,,-1,,-1,,-1,,-1,,-1,,-1,,-1,,-1,1032.4,100,13.7,100,331,100,16.9,100,5,100,-0.4,1,6,1,1032.4,1,1032.4,100,1032.4,100,13.7,100,13.3,100,331,100,334,100,16.9,100,16.9,100
2022-10-29T05:30:00Z,44489,9302001,WEST CHEDABUCTO BAY,0,45.48687,-61.14100000000001,18,2022-10-29T05:30:00.000Z,110,2022-10-29T05:33:30.305Z,45.48702,100,-61.14105,100,7.4,100,12.0,100,12.5,100,0.0,100,3.6,100,,-1,,-1,,-1,,-1,,-1,,-1,,-1,,-1,1032.4,100,13.0,100,331,100,16.9,100,5,100,-0.3,1,6,1,1032.4,1,1032.4,100,1032.4,100,13.0,100,13.0,100,331,100,334,100,16.9,100,16.6,100
2022-10-29T05:40:00Z,44489,9302001,WEST CHEDABUCTO BAY,0,45.48687,-61.14100000000001,18,2022-10-29T05:40:00.000Z,110,2022-10-29T05:43:32.277Z,45.48705,100,-61.14106999999999,100,7.4,100,12.0,100,12.5,100,0.0,100,3.6,100,,-1,,-1,,-1,,-1,,-1,,-1,,-1,,-1,1032.4,100,12.2,100,333,100,14.0,100,5,100,-0.1,1,6,1,1032.4,1,1032.4,100,1032.4,100,12.2,100,11.9,100,333,100,336,100,14.0,100,14.0,100
2022-10-29T05:50:00Z,44489,9302001,WEST CHEDABUCTO BAY,0,45.48687,-61.14100000000001,18,2022-10-29T05:50:00.000Z,110,2022-10-29T05:53:37.208Z,45.48708,100,-61.1411,100,7.3,100,12.0,100,12.5,100,0.0,100,3.6,100,,-1,,-1,,-1,,-1,,-1,,-1,,-1,,-1,1032.3,100,12.6,100,341,100,15.8,100,5,100,-0.2,1,7,1,1032.3,1,1032.3,100,1032.3,100,12.6,100,12.6,100,341,100,343,100,15.8,100,15.5,100
2022-10-29T06:00:00Z,44489,9302001,WEST CHEDABUCTO BAY,0,45.48687,-61.14100000000001,18,2022-10-29T06:00:00.000Z,108,2022-10-29T06:03:37.209Z,45.48705,100,-61.14105,100,7.2,100,12.0,100,12.5,100,0.0,100,3.6,100,0.0,100,0.1,100,2.8,100,0.0,100,0.0,100,3.1,100,2.5,100,4.9,100,1032.4,100,10.1,100,329,100,15.1,100,5,100,0.0,1,4,1,1032.4,1,1032.4,100,1032.4,100,10.1,100,10.1,100,329,100,332,100,15.1,100,14.0,100
2022-10-29T06:10:00Z,44489,9302001,WEST CHEDABUCTO BAY,0,45.48687,-61.14100000000001,18,2022-10-29T06:10:00.000Z,110,2022-10-29T06:15:38.477Z,45.48703,100,-61.14105,100,7.1,100,12.0,100,12.5,100,0.0,100,3.6,100,,-1,,-1,,-1,,-1,,-1,,-1,,-1,,-1,1032.3,100,10.1,100,336,100,13.3,100,5,100,-0.1,1,7,1,1032.3,1,1032.3,100,1032.3,100,10.1,100,9.7,100,336,100,338,100,13.3,100,13.0,100
2022-10-29T06:20:00Z,44489,9302001,WEST CHEDABUCTO BAY,0,45.48687,-61.14100000000001,18,2022-10-29T06:20:00.000Z,110,2022-10-29T06:22:38.751Z,45.48703,100,-61.14105,100,7.0,100,12.0,100,12.5,100,0.0,100,3.6,100,,-1,,-1,,-1,,-1,,-1,,-1,,-1,,-1,1032.3,100,7.9,100,323,100,13.3,100,5,100,-0.1,1,8,1,1032.3,1,1032.3,100,1032.3,100,7.9,100,7.6,100,323,100,326,100,13.3,100,13.3,100
2022-10-29T06:30:00Z,44489,9302001,WEST CHEDABUCTO BAY,0,45.48687,-61.14100000000001,18,2022-10-29T06:30:00.000Z,110,2022-10-29T06:32:42.189Z,45.48705,100,-61.14105,100,7.1,100,12.0,100,12.5,100,0.0,100,3.6,100,,-1,,-1,,-1,,-1,,-1,,-1,,-1,,-1,1032.2,100,7.6,100,321,100,11.2,100,5,100,-0.2,1,8,1,1032.2,1,1032.2,100,1032.2,100,7.6,100,7.6,100,321,100,324,100,11.2,100,10.8,100
2022-10-29T06:40:00Z,44489,9302001,WEST CHEDABUCTO BAY,0,45.48687,-61.14100000000001,18,2022-10-29T06:40:00.000Z,110,2022-10-29T06:42:48.707Z,45.48705,100,-61.14106999999999,100,7.2,100,12.0,100,12.5,100,0.0,100,3.6,100,,-1,,-1,,-1,,-1,,-1,,-1,,-1,,-1,1032.2,100,7.6,100,298,100,10.8,100,5,100,0.0,1,0,1,1032.2,1,1032.2,100,1032.3,100,7.6,100,7.6,100,298,100,300,100,10.8,100,10.4,100
2022-10-29T06:50:00Z,44489,9302001,WEST CHEDABUCTO BAY,0,45.48687,-61.14100000000001,18,2022-10-29T06:50:00.000Z,110,2022-10-29T06:52:45.712Z,45.48705,100,-61.14103000000001,100,7.2,100,12.0,100,12.5,100,0.0,100,3.6,100,,-1,,-1,,-1,,-1,,-1,,-1,,-1,,-1,1032.2,100,7.2,100,301,100,9.7,100,5,100,-0.1,1,8,1,1032.2,1,1032.2,100,1032.3,100,7.2,100,6.8,100,301,100,303,100,9.7,100,9.7,100
2022-10-29T07:00:00Z,44489,9302001,WEST CHEDABUCTO BAY,0,45.48687,-61.14100000000001,18,2022-10-29T07:00:00.000Z,108,2022-10-29T07:02:49.453Z,45.48705,100,-61.14105,100,7.2,100,12.1,100,12.5,100,0.0,100,3.6,100,0.0,100,0.1,100,2.6,100,0.0,100,0.1,100,2.7,100,2.4,100,4.7,100,1032.2,100,6.5,100,301,100,8.3,100,5,100,-0.1,1,8,1,1032.2,1,1032.2,100,1032.2,100,6.5,100,6.5,100,301,100,304,100,8.3,100,8.3,100
2022-10-29T07:10:00Z,44489,9302001,WEST CHEDABUCTO BAY,0,45.48687,-61.14100000000001,18,2022-10-29T07:10:00.000Z,110,2022-10-29T07:17:02.946Z,45.48707,100,-61.14105,100,7.2,100,12.2,100,12.5,100,0.0,100,3.6,100,,-1,,-1,,-1,,-1,,-1,,-1,,-1,,-1,1032.1,100,5.4,100,291,100,7.9,100,5,100,-0.3,1,8,1,1032.1,1,1032.1,100,1032.1,100,5.4,100,5.4,100,291,100,293,100,7.9,100,7.9,100
2022-10-29T07:20:00Z,44489,9302001,WEST CHEDABUCTO BAY,0,45.48687,-61.14100000000001,18,2022-10-29T07:20:00.000Z,110,2022-10-29T07:23:06.790Z,45.48705,100,-61.14103000000001,100,7.4,100,12.2,100,12.5,100,0.0,100,3.6,100,,-1,,-1,,-1,,-1,,-1,,-1,,-1,,-1,1032.0,100,6.5,100,256,100,9.7,100,5,100,-0.4,1,8,1,1032.0,1,1032.0,100,1032.0,100,6.5,100,6.5,100,256,100,258,100,9.7,100,9.7,100
2022-10-29T07:30:00Z,44489,9302001,WEST CHEDABUCTO BAY,0,45.48687,-61.14100000000001,18,2022-10-29T07:30:00.000Z,110,2022-10-29T07:33:03.586Z,45.48705,100,-61.14103000000001,100,7.4,100,12.2,100,12.5,100,0.0,100,3.6,100,,-1,,-1,,-1,,-1,,-1,,-1,,-1,,-1,1032.0,100,5.8,100,245,100,8.6,100,5,100,-0.4,1,8,1,1032.0,1,1032.0,100,1032.1,100,5.8,100,5.8,100,245,100,248,100,8.6,100,8.6,100
2022-10-29T07:40:00Z,44489,9302001,WEST CHEDABUCTO BAY,0,45.48687,-61.14100000000001,18,2022-10-29T07:40:00.000Z,110,2022-10-29T07:44:02.330Z,45.48707,100,-61.14106999999999,100,7.6,100,12.2,100,12.5,100,0.0,100,3.6,100,,-1,,-1,,-1,,-1,,-1,,-1,,-1,,-1,1032.2,100,7.2,100,228,100,11.2,100,5,100,-0.3,1,6,1,1032.2,1,1032.2,100,1032.3,100,7.2,100,6.8,100,228,100,231,100,11.2,100,10.8,100
2022-10-29T07:50:00Z,44489,9302001,WEST CHEDABUCTO BAY,0,45.48687,-61.14100000000001,18,2022-10-29T07:50:00.000Z,110,2022-10-29T07:53:03.627Z,45.48705,100,-61.14106999999999,100,7.6,100,12.2,100,12.4,100,0.0,100,3.6,100,,-1,,-1,,-1,,-1,,-1,,-1,,-1,,-1,1032.2,100,9.4,100,235,100,12.6,100,5,100,-0.3,1,6,1,1032.2,1,1032.2,100,1032.2,100,9.4,100,9.4,100,235,100,238,100,12.6,100,12.2,100
2022-10-29T08:00:00Z,44489,9302001,WEST CHEDABUCTO BAY,0,45.48687,-61.14100000000001,18,2022-10-29T08:00:00.000Z,108,2022-10-29T08:03:12.077Z,45.48703,100,-61.14103000000001,100,7.6,100,12.2,100,12.4,100,0.0,100,3.6,100,0.0,100,0.1,100,2.4,100,0.1,100,0.1,100,2.4,100,2.3,100,2.0,100,1032.1,100,7.9,100,243,100,10.8,100,5,100,-0.3,1,8,1,1032.1,1,1032.1,100,1032.1,100,7.9,100,7.9,100,243,100,245,100,10.8,100,10.4,100
2022-10-29T08:10:00Z,44489,9302001,WEST CHEDABUCTO BAY,0,45.48687,-61.14100000000001,18,2022-10-29T08:10:00.000Z,110,2022-10-29T08:16:18.825Z,45.48705,100,-61.14108,100,7.6,100,12.2,100,12.5,100,0.0,100,3.6,100,,-1,,-1,,-1,,-1,,-1,,-1,,-1,,-1,1032.0,100,7.6,100,236,100,10.4,100,5,100,-0.3,1,6,1,1032.0,1,1032.0,100,1032.1,100,7.6,100,7.2,100,236,100,238,100,10.4,100,10.4,100
2022-10-29T08:20:00Z,44489,9302001,WEST CHEDABUCTO BAY,0,45.48687,-61.14100000000001,18,2022-10-29T08:20:00.000Z,110,2022-10-29T08:23:20.816Z,45.48705,100,-61.14106999999999,100,7.7,100,12.1,100,12.5,100,0.0,100,3.6,100,,-1,,-1,,-1,,-1,,-1,,-1,,-1,,-1,1032.0,100,7.2,100,246,100,9.7,100,5,100,-0.4,1,7,1,1032.0,1,1032.0,100,1032.0,100,7.2,100,6.8,100,246,100,248,100,9.7,100,9.4,100
2022-10-29T08:30:00Z,44489,9302001,WEST CHEDABUCTO BAY,0,45.48687,-61.14100000000001,18,2022-10-29T08:30:00.000Z,110,2022-10-29T08:33:27.011Z,45.48705,100,-61.14105,100,7.6,100,12.2,100,12.5,100,0.0,100,3.6,100,,-1,,-1,,-1,,-1,,-1,,-1,,-1,,-1,1031.9,100,8.3,100,260,100,11.2,100,5,100,-0.4,1,6,1,1031.9,1,1031.9,100,1032.0,100,8.3,100,8.3,100,260,100,262,100,11.2,100,10.8,100
2022-10-29T08:40:00Z,44489,9302001,WEST CHEDABUCTO BAY,0,45.48687,-61.14100000000001,18,2022-10-29T08:40:00.000Z,110,2022-10-29T08:43:28.275Z,45.48707,100,-61.14105,100,7.5,100,12.2,100,12.4,100,0.0,100,3.6,100,,-1,,-1,,-1,,-1,,-1,,-1,,-1,,-1,1031.9,100,7.2,100,252,100,10.4,100,5,100,-0.5,1,8,1,1031.9,1,1031.9,100,1031.9,100,7.2,100,7.2,100,252,100,254,100,10.4,100,10.4,100
2022-10-29T08:50:00Z,44489,9302001,WEST CHEDABUCTO BAY,0,45.48687,-61.14100000000001,18,2022-10-29T08:50:00.000Z,110,2022-10-29T08:53:26.995Z,45.48703,100,-61.14105,100,7.4,100,12.2,100,12.4,100,0.0,100,3.6,100,,-1,,-1,,-1,,-1,,-1,,-1,,-1,,-1,1031.8,100,7.2,100,245,100,9.4,100,5,100,-0.5,1,8,1,1031.8,1,1031.8,100,1031.8,100,7.2,100,7.2,100,245,100,247,100,9.4,100,9.7,100
2022-10-29T09:00:00Z,44489,9302001,WEST CHEDABUCTO BAY,0,45.48687,-61.14100000000001,18,2022-10-29T09:00:00.000Z,108,2022-10-29T09:03:29.731Z,45.48705,100,-61.14106999999999,100,7.5,100,12.2,100,12.4,100,0.0,100,3.6,100,0.1,100,0.1,100,2.3,100,0.1,100,0.1,100,2.2,100,2.2,100,2.1,100,1031.8,100,8.6,100,242,100,10.8,100,5,100,-0.5,1,8,1,1031.8,1,1031.8,100,1031.9,100,8.6,100,8.3,100,242,100,245,100,10.8,100,10.4,100
2022-10-29T09:10:00Z,44489,9302001,WEST CHEDABUCTO BAY,0,45.48687,-61.14100000000001,18,2022-10-29T09:10:00.000Z,110,2022-10-29T09:16:30.189Z,45.48705,100,-61.14103000000001,100,7.5,100,12.2,100,12.5,100,0.0,100,3.6,100,,-1,,-1,,-1,,-1,,-1,,-1,,-1,,-1,1031.9,100,9.4,100,247,100,13.3,100,5,100,-0.4,1,7,1,1031.9,1,1031.9,100,1031.9,100,9.4,100,9.4,100,247,100,250,100,13.3,100,13.0,100
2022-10-29T09:20:00Z,44489,9302001,WEST CHEDABUCTO BAY,0,45.48687,-61.14100000000001,18,2022-10-29T09:20:00.000Z,110,2022-10-29T09:23:31.155Z,45.48705,100,-61.14105,100,7.3,100,12.2,100,12.4,100,0.0,100,3.6,100,,-1,,-1,,-1,,-1,,-1,,-1,,-1,,-1,1031.9,100,14.0,100,242,100,18.4,100,5,100,-0.4,1,6,1,1031.9,1,1031.9,100,1031.9,100,14.0,100,13.7,100,242,100,244,100,18.4,100,18.7,100